RH
24 24 23 22 22 21 20 19 18 18 18 17 16 14 13 12 10 10 10 10 11 12 13 14 15 17 19 18 18 18 18 18 17 17 17 18 19 21 23 25 26 28 32 34 34 36 38 38 40 40 39 37 37 36 37 37 38 38 39 39 39 39 39 40 39 36 35 36 37 39 42 43 42 42 42 42 44 45 46 48 48 49 48 47 47
24 23 23 22 21 20 18 18 18 18 19 19 18 16 15 13 11 10 11 10 11 11 12 13 14 16 17 18 18 18 18 17 18 17 17 17 18 19 20 22 23 25 27 31 32 33 34 35 37 40 41 40 38 37 36 36 37 37 37 38 38 38 38 38 38 37 35 35 35 37 39 42 43 43 44 44 44 45 46 47 48 49 49 49 48
23 23 23 22 21 20 19 18 18 18 19 19 18 17 15 14 13 12 11 11 11 12 13 14 16 16 17 18 18 18 18 18 18 19 18 18 18 18 18 19 21 22 23 25 28 31 32 32 34 37 39 40 40 39 37 37 37 37 37 37 37 37 38 38 38 37 35 34 34 35 36 38 39 40 43 45 46 47 48 48 48 49 49 49 48
24 23 22 22 21 21 20 18 18 17 17 17 16 16 16 16 15 13 12 13 13 14 15 16 17 18 18 18 19 19 19 19 19 20 20 20 20 19 19 19 18 19 20 21 23 26 29 30 31 33 35 38 39 39 39 38 37 36 36 37 37 37 37 38 37 37 36 35 34 34 35 36 36 37 40 42 45 47 48 49 50 50 50 50 49
25 24 23 23 22 22 21 19 18 17 16 16 16 16 16 16 15 15 15 15 15 16 17 18 17 18 19 19 20 19 18 19 19 19 19 20 20 20 20 20 19 18 18 19 19 20 23 26 28 30 32 34 36 38 39 39 38 37 35 36 36 36 36 37 36 36 36 36 35 34 34 36 36 37 37 39 42 44 46 48 50 50 51 52 51
24 23 23 22 22 22 21 20 19 17 16 16 15 16 16 16 17 17 17 16 17 18 18 18 18 19 19 20 19 19 18 18 18 18 18 19 20 21 21 21 20 19 18 18 18 18 19 21 23 26 29 32 33 35 37 39 40 38 36 35 35 35 36 35 35 35 35 35 35 34 34 35 37 37 38 40 41 42 43 44 46 46 47 49 50
24 23 22 21 22 22 21 20 19 18 17 15 15 17 18 19 20 19 18 18 18 18 18 18 19 20 20 20 18 17 17 17 17 17 17 18 19 20 21 21 21 20 20 19 18 19 19 21 22 24 25 28 30 32 34 36 38 38 37 36 35 34 35 35 35 34 34 34 34 35 34 34 35 37 38 39 42 43 43 43 43 42 42 45 47
28 27 25 24 23 23 21 21 19 18 18 17 17 19 21 22 22 21 20 19 19 19 18 19 21 22 21 19 17 16 17 18 18 17 18 18 18 19 20 21 21 21 21 20 19 19 19 20 22 23 24 26 27 28 31 32 34 35 36 36 35 34 33 34 34 34 34 34 34 34 34 34 35 36 37 38 41 42 39 39 41 41 40 42 45
32 32 31 29 28 27 26 25 23 22 22 21 21 22 24 24 24 23 22 21 20 20 20 21 23 23 21 19 18 17 18 19 18 18 17 17 18 17 18 20 20 20 20 19 20 19 19 19 20 20 22 23 24 25 26 27 29 30 31 31 32 32 32 33 32 33 33 34 34 34 35 35 35 36 37 38 39 38 36 37 40 42 42 44 46
32 33 34 35 33 32 32 31 30 29 27 26 25 25 25 26 27 27 25 24 23 22 23 24 25 23 21 20 20 21 21 22 21 20 20 19 19 19 18 18 19 19 20 19 19 19 19 20 20 21 22 22 24 25 25 26 26 27 28 29 31 32 33 33 33 33 33 33 32 33 34 34 35 36 37 37 38 38 38 38 39 40 43 46 48
35 36 39 39 38 37 36 36 36 35 34 33 31 29 29 29 30 30 29 27 25 25 25 26 25 24 22 21 23 24 25 25 25 24 25 25 25 25 24 23 22 21 21 21 21 22 23 24 25 26 27 28 29 29 29 29 29 29 29 30 31 33 34 35 35 35 36 34 33 33 33 32 32 34 35 37 38 39 38 37 37 39 43 46 46
39 40 43 42 40 39 39 39 39 40 40 41 39 36 33 32 32 33 31 29 27 26 26 26 26 25 25 24 25 25 26 26 26 27 28 28 30 32 32 31 30 28 27 27 27 27 28 29 30 31 32 32 33 33 33 32 32 31 31 30 31 31 32 32 33 36 38 38 37 36 34 32 32 32 33 34 36 36 37 38 38 40 43 45 45
41 43 43 43 43 42 43 43 43 44 45 45 45 43 40 37 35 34 32 30 28 28 27 27 28 27 26 26 26 26 26 27 28 29 30 32 35 38 40 41 41 40 40 39 38 38 37 37 36 35 34 34 34 35 34 33 32 33 32 32 32 31 30 29 29 31 34 36 37 37 37 35 33 32 31 33 35 37 37 39 41 42 45 46 47
42 43 43 44 44 44 45 46 47 48 48 47 46 46 45 42 38 35 34 32 30 29 28 29 30 29 28 28 28 27 28 28 30 32 33 36 39 43 45 46 47 47 48 49 49 49 48 48 47 46 46 45 45 44 42 41 39 37 36 35 34 32 32 30 30 30 32 33 33 34 34 34 33 32 33 36 38 39 40 41 42 43 44 45 47
42 42 42 42 43 43 43 45 46 47 48 48 47 45 45 45 43 38 35 34 32 30 29 30 32 31 31 30 29 29 29 30 31 34 36 39 42 45 47 48 49 50 50 52 52 53 53 54 54 54 55 56 56 56 56 55 53 51 48 45 41 37 34 33 32 30 30 31 32 32 32 32 33 34 35 37 39 40 42 42 43 43 43 44 46
42 42 41 41 41 41 41 41 43 45 46 46 46 45 44 46 47 44 40 37 35 33 32 32 33 34 33 33 32 31 31 33 34 36 39 42 44 46 47 48 49 50 51 52 53 54 55 56 56 57 57 58 59 59 61 61 60 59 59 56 53 47 42 40 40 38 35 34 33 33 34 36 38 39 40 41 41 42 44 44 45 46 46 45 46
43 43 42 41 41 41 40 40 41 42 43 43 43 43 43 44 48 49 46 42 38 36 35 35 35 37 37 35 34 34 34 36 37 39 42 45 47 49 49 48 49 49 51 53 53 53 54 55 56 57 58 59 60 60 61 62 61 61 60 60 59 54 48 48 50 49 48 45 41 40 41 42 43 44 43 43 44 44 45 45 47 48 48 47 47
40 41 41 41 41 41 41 40 40 41 40 39 39 40 40 42 47 51 51 47 42 39 37 38 39 40 39 37 36 36 38 40 42 43 45 48 49 50 50 49 50 50 52 53 53 54 55 56 57 58 58 59 60 61 61 61 60 60 60 60 59 55 51 53 55 55 55 54 52 52 51 50 51 50 48 45 43 43 43 44 46 48 47 46 46
36 37 38 39 40 41 41 41 41 41 40 39 37 36 37 40 45 50 53 52 48 44 41 41 40 40 40 38 38 40 42 44 46 47 48 50 50 52 52 51 50 51 52 53 54 55 57 58 60 60 60 60 61 62 63 62 61 61 61 59 57 54 55 57 56 56 56 55 54 55 56 56 59 59 56 52 49 47 45 45 48 49 48 47 47
34 33 34 36 38 41 41 40 39 39 39 40 39 37 36 39 43 48 53 54 53 50 46 43 42 41 41 40 40 41 44 46 48 49 51 51 51 51 52 51 52 53 53 54 54 56 58 60 60 60 58 57 57 59 61 62 62 62 60 57 54 54 57 57 55 55 55 54 53 55 57 58 61 62 62 62 61 59 56 53 52 50 48 46 45
31 30 31 32 33 37 39 39 39 38 38 39 40 39 39 40 44 46 49 52 53 52 49 46 44 44 43 42 42 42 45 48 49 50 51 51 50 49 49 50 52 53 55 56 56 57 58 57 56 55 54 54 54 55 56 58 59 58 55 53 52 53 55 55 53 54 54 52 52 54 55 56 58 59 61 64 65 66 65 64 63 61 57 52 49
27 27 28 29 30 32 36 37 37 37 38 39 40 39 40 42 45 47 48 49 49 49 48 47 46 46 45 45 45 46 48 50 51 51 51 50 49 49 49 50 52 54 55 55 55 54 53 52 50 51 52 53 55 56 56 57 57 56 54 53 52 52 53 53 53 53 52 51 51 52 52 52 53 55 57 59 61 65 67 66 66 68 66 62 60
23 23 24 24 25 26 31 34 35 36 37 38 40 41 40 41 44 46 47 46 45 45 45 44 44 44 45 46 48 49 51 52 52 51 51 50 50 51 52 52 54 54 54 53 52 51 50 49 50 53 55 56 57 58 59 60 59 57 56 55 54 54 54 54 53 52 52 51 50 50 50 51 53 55 56 56 59 62 62 61 61 65 65 65 68
21 21 21 21 21 21 24 29 32 34 36 38 39 41 41 41 42 43 43 43 42 42 42 42 42 43 45 47 49 50 51 51 52 51 51 52 52 54 54 54 54 53 51 50 50 51 52 54 57 59 61 61 61 61 61 61 60 59 58 58 57 56 56 55 54 53 53 52 52 51 51 51 53 55 55 57 58 59 57 56 56 59 63 68 75
20 20 20 20 19 19 21 24 28 32 34 35 36 38 41 42 42 42 42 42 42 41 42 43 44 45 46 48 49 50 50 50 51 50 50 51 51 51 52 51 50 50 50 52 55 57 58 59 60 60 61 61 62 62 62 61 60 60 60 60 59 59 59 57 55 54 52 50 50 49 48 48 52 58 62 63 62 61 62 60 60 64 70 77 81
20 19 19 19 19 19 19 21 24 28 31 32 32 34 37 40 41 43 44 45 45 45 46 47 47 48 49 50 50 50 50 50 50 50 50 50 50 51 51 52 53 55 57 59 61 60 60 60 61 61 63 64 65 65 63 61 61 60 59 59 57 55 55 53 51 48 47 46 46 45 46 51 57 64 69 68 64 62 62 60 60 65 71 74 75
20 19 19 19 18 18 19 20 22 25 27 28 29 29 33 36 39 42 44 46 48 49 49 50 51 51 51 52 52 52 51 51 51 51 52 52 53 54 55 56 57 58 58 58 58 58 59 61 62 63 65 66 66 65 63 62 60 59 56 54 50 48 47 46 45 45 44 44 44 44 46 53 58 63 67 66 60 57 56 57 59 61 62 64 66
22 21 19 19 18 18 19 20 21 22 24 26 28 28 30 33 36 39 42 44 47 49 51 51 52 52 53 53 53 53 53 53 53 53 53 53 54 54 55 54 54 53 53 54 54 54 55 56 57 58 60 61 62 62 60 57 55 52 50 47 45 44 43 44 44 45 45 45 46 45 46 49 52 55 56 55 52 51 53 56 58 59 59 61 63
26 24 22 20 20 19 20 20 21 22 24 25 26 28 30 32 34 37 39 42 44 47 49 51 52 52 53 54 54 54 55 54 54 54 54 53 53 52 52 52 52 52 53 52 52 52 53 54 55 56 56 56 54 52 50 47 46 45 43 43 41 40 40 41 41 41 41 40 40 40 40 42 44 46 47 47 45 46 47 48 48 49 50 51 53
28 28 25 24 24 23 23 23 23 23 24 24 25 27 29 30 31 34 36 39 40 42 45 48 51 53 53 54 54 54 54 54 52 52 52 52 51 51 51 51 52 52 52 53 54 54 54 54 52 50 47 45 42 40 38 37 35 34 34 34 34 33 33 34 34 33 33 33 32 31 31 33 36 40 43 45 44 43 44 45 45 45 45 45 45
30 31 30 29 29 28 27 27 26 26 25 25 25 27 28 30 31 33 34 37 39 41 43 45 48 50 52 53 54 53 52 52 51 51 52 52 53 53 52 52 52 52 53 54 53 50 47 44 40 38 36 34 33 31 31 30 29 29 30 31 32 32 31 32 32 31 30 30 29 27 28 30 33 37 41 44 43 43 43 44 44 44 44 43 43
31 32 32 32 32 31 30 30 29 29 28 28 27 27 28 30 32 35 36 37 40 44 47 48 50 50 51 52 54 54 54 54 54 55 55 56 56 56 56 55 53 50 47 44 41 37 35 33 32 31 30 30 29 29 29 29 29 30 31 30 31 32 31 31 31 30 30 29 27 25 26 28 31 33 37 41 42 42 42 43 43 43 43 43 43
33 33 33 33 33 32 32 33 32 32 32 32 32 32 32 33 35 37 39 40 41 44 46 48 51 53 53 55 56 56 57 59 60 62 62 61 60 59 55 50 45 38 34 32 31 30 30 29 30 30 29 29 30 30 30 30 30 30 31 30 30 30 30 30 30 29 29 28 26 25 26 28 30 32 36 39 41 40 41 41 42 43 44 43 43
35 36 35 34 33 33 33 34 34 35 36 36 36 37 37 37 37 38 39 40 42 45 47 48 50 52 54 57 59 60 61 61 61 61 59 55 50 45 40 36 32 29 29 29 29 29 29 29 29 30 30 30 31 31 31 31 31 31 31 31 30 30 30 30 29 29 28 27 26 27 27 28 32 36 38 39 40 40 40 40 42 43 44 44 44
37 37 36 35 34 34 35 34 35 36 37 38 38 38 38 40 42 42 44 46 48 50 52 51 51 51 52 53 55 56 56 55 52 49 45 39 34 32 30 30 30 29 29 29 29 30 30 31 31 32 33 33 33 33 33 33 32 32 31 31 31 31 31 31 30 30 30 29 28 27 28 28 30 34 38 39 39 39 39 39 41 43 45 48 52
38 37 37 37 36 36 36 36 37 37 38 38 38 38 41 47 50 52 53 55 55 56 57 56 53 50 48 48 47 45 43 40 37 34 32 30 29 29 30 30 29 30 30 30 31 31 32 33 34 34 35 35 35 35 35 34 33 33 33 33 33 33 33 33 32 31 30 29 28 27 27 27 29 33 38 40 40 40 41 41 42 46 52 57 61
41 40 39 39 39 39 40 39 39 40 41 42 43 43 45 50 53 53 53 55 56 56 55 53 49 46 42 40 38 35 33 32 31 30 30 30 30 30 30 30 30 31 32 33 34 34 35 35 36 36 37 37 37 36 35 35 35 35 35 35 36 37 36 35 34 32 31 29 28 27 27 28 31 36 41 42 41 41 42 44 45 50 58 62 66
43 42 42 41 41 44 47 47 48 50 50 50 52 52 51 52 53 52 50 50 50 49 47 47 48 45 40 35 34 32 31 31 31 31 32 31 31 31 32 32 33 34 35 36 36 37 37 37 38 38 39 38 38 37 36 36 36 37 37 38 39 38 36 35 34 33 32 31 28 28 29 30 32 36 40 41 40 39 42 46 49 52 58 63 69
44 44 42 42 42 43 45 47 50 54 55 52 52 53 52 51 51 50 48 47 47 46 45 45 47 44 38 33 32 32 32 33 33 33 33 33 34 34 35 36 37 38 39 40 40 40 39 39 39 40 40 39 39 39 38 38 38 38 39 41 40 38 35 34 33 32 32 32 30 30 30 31 31 35 39 41 40 39 43 48 52 55 59 64 71
45 45 44 43 42 41 40 41 44 48 52 52 52 51 50 50 51 50 49 48 48 47 46 46 43 40 37 35 35 35 35 34 35 36 36 36 37 37 38 40 41 42 43 44 43 41 41 40 40 41 40 40 40 40 40 40 41 42 42 42 40 37 34 32 32 31 32 33 34 33 32 31 32 36 41 42 41 41 45 50 53 58 63 68 73
45 47 46 44 43 42 40 39 40 41 44 47 48 47 48 49 50 50 51 50 48 47 46 44 42 41 41 41 40 39 38 38 38 39 39 40 41 42 42 44 45 46 47 47 45 42 41 42 42 42 42 42 42 42 43 43 44 45 44 42 39 36 34 33 33 34 34 36 37 37 37 36 36 38 41 43 42 42 45 49 54 59 64 68 73
47 47 47 46 45 44 43 43 43 41 41 43 43 43 44 46 48 51 51 49 47 46 45 45 46 46 47 47 45 45 44 45 46 47 48 48 48 48 48 48 49 50 49 48 46 44 43 43 43 43 44 45 45 45 46 47 47 46 44 42 39 37 37 37 38 38 39 39 39 39 39 40 42 43 44 45 45 44 44 47 52 57 60 65 72
48 48 47 47 46 46 46 47 47 47 47 47 46 45 47 50 53 56 57 55 53 51 50 50 50 51 51 51 51 51 51 52 53 55 56 56 57 56 54 52 53 53 52 51 49 47 45 45 46 48 49 50 49 49 49 49 47 45 44 42 40 40 41 42 42 43 43 42 41 41 41 44 47 49 49 48 48 47 46 49 54 57 60 64 71
49 48 48 47 47 47 48 49 49 51 52 53 54 55 57 58 60 61 59 57 56 55 54 54 55 55 55 56 56 56 56 57 57 58 59 60 61 61 59 58 57 56 56 55 53 50 48 48 51 55 56 54 53 53 52 50 47 45 44 43 42 42 44 45 44 44 44 44 43 42 44 47 50 51 51 50 49 49 50 54 59 60 61 64 69
52 51 51 49 49 49 50 51 52 54 55 56 59 61 62 61 60 59 58 57 57 57 58 59 60 60 61 60 60 60 61 62 61 60 60 60 61 61 62 61 61 60 59 59 57 56 56 56 59 60 60 58 56 56 55 52 49 47 46 45 44 44 45 46 44 44 45 45 45 45 46 49 51 52 53 55 56 57 58 60 63 64 64 63 66
57 56 56 56 55 54 54 55 56 58 59 60 61 61 61 60 60 60 60 60 61 62 63 64 64 65 65 65 65 65 64 64 63 62 61 61 62 63 63 63 63 62 61 61 62 64 65 66 66 65 63 62 61 59 57 54 51 49 49 48 47 46 47 47 47 47 47 48 49 48 48 48 49 50 52 55 60 65 70 71 72 73 72 71 71
69 65 63 62 61 60 60 60 60 61 62 63 62 62 63 63 63 63 63 64 65 66 66 67 68 69 68 68 67 66 66 65 65 65 66 66 66 66 65 63 63 62 62 63 66 70 73 74 73 70 68 66 65 62 59 56 54 53 53 53 52 50 49 49 50 50 50 50 50 51 51 50 49 48 49 50 54 60 67 72 75 79 81 81 80
78 75 71 70 69 67 66 64 64 64 66 66 67 67 67 67 66 66 67 67 68 68 69 70 70 69 69 68 68 68 68 69 69 70 70 69 68 66 64 62 62 62 64 65 68 71 76 78 77 76 73 70 67 65 62 60 57 56 55 57 56 56 56 55 54 53 54 54 54 54 54 53 52 51 50 50 50 52 55 60 66 71 76 79 81
85 82 80 80 80 78 73 69 66 66 66 67 68 69 69 69 69 69 69 69 69 69 69 69 68 67 67 67 68 69 70 71 70 70 69 68 67 67 66 65 64 65 67 68 69 72 75 79 80 79 77 74 72 69 66 63 60 58 58 59 59 60 62 63 61 60 60 60 61 60 60 59 58 56 56 54 53 53 51 53 56 60 63 67 71
85 82 78 76 76 74 72 70 69 69 68 66 66 68 69 70 70 70 69 69 69 69 68 69 69 68 68 68 68 68 68 68 67 67 67 67 68 68 69 69 70 70 70 70 70 70 72 77 79 79 78 78 77 75 72 69 65 63 62 63 63 64 66 68 68 67 65 65 65 65 65 63 62 62 61 60 59 58 56 54 54 56 58 60 62
77 75 73 71 69 68 67 67 69 71 71 69 68 69 70 70 70 70 70 69 69 69 69 69 69 69 68 68 67 68 67 67 67 68 68 69 71 72 73 74 75 75 75 75 74 72 70 72 75 77 79 80 80 80 78 75 72 71 71 71 70 70 71 72 72 71 70 69 68 67 65 64 63 63 63 63 62 60 57 53 53 56 59 60 62